| time (UTC) | temp C | wind direction | speed KPH | gust KPH | rain 1hr cm | rain 24hr cm | rain mn cm | humidity % | barometer mb |
| 20260508004555 | -1 | 270 | 14.5 | 37.0 | 0.00 | 0.76 | 0.15 | 81 | 1003.7 |
| 20260508003055 | -1 | 261 | 12.9 | 32.2 | 0.00 | 0.76 | 0.15 | 81 | 1003.6 |
| 20260508001557 | 0 | 41 | 8.0 | 30.6 | 0.00 | 0.76 | 0.15 | 80 | 1003.8 |
| 20260508000054 | 0 | 266 | 16.1 | 32.2 | 0.00 | 0.76 | 0.15 | 78 | 1003.6 |
| 20260507234603 | 0 | 275 | 17.7 | 35.4 | 0.00 | 1.09 | 0.15 | 76 | 1003.4 |
| 20260507233054 | 0 | 305 | 16.1 | 38.6 | 0.00 | 1.09 | 0.15 | 75 | 1003.1 |
| 20260507231558 | 1 | 272 | 14.5 | 37.0 | 0.00 | 1.09 | 0.15 | 73 | 1003.2 |
| 20260507230100 | 1 | 245 | 19.3 | 37.0 | 0.00 | 1.09 | 0.15 | 73 | 1003.1 |
| 20260507224558 | 1 | 186 | 17.7 | 41.8 | 0.00 | 1.17 | 0.15 | 72 | 1002.9 |
| 20260507223059 | 1 | 299 | 19.3 | 48.3 | 0.00 | 1.17 | 0.15 | 72 | 1002.9 |
| 20260507221555 | 1 | 303 | 14.5 | 32.2 | 0.00 | 1.17 | 0.15 | 73 | 1003.0 |
| 20260507220059 | 1 | 251 | 22.5 | 46.7 | 0.00 | 1.17 | 0.15 | 72 | 1003.0 |
| 20260507214601 | 2 | 260 | 17.7 | 48.3 | 0.00 | 1.24 | 0.15 | 73 | 1003.0 |
| 20260507213056 | 2 | 277 | 19.3 | 37.0 | 0.00 | 1.24 | 0.15 | 73 | 1002.8 |
| 20260507211554 | 2 | 192 | 16.1 | 37.0 | 0.00 | 1.24 | 0.15 | 77 | 1002.9 |
| 20260507210053 | 2 | 271 | 14.5 | 35.4 | 0.00 | 1.24 | 0.15 | 76 | 1002.9 |
| 20260507204557 | 2 | 256 | 16.1 | 43.5 | 0.00 | 1.32 | 0.15 | 77 | 1002.7 |
| 20260507203103 | 2 | 235 | 16.1 | 33.8 | 0.00 | 1.32 | 0.15 | 79 | 1002.8 |
| 20260507201601 | 2 | 240 | 16.1 | 43.5 | 0.00 | 1.32 | 0.15 | 83 | 1002.7 |
| 20260507200058 | 2 | 271 | 19.3 | 37.0 | 0.00 | 1.32 | 0.15 | 81 | 1002.5 |
| 20260507194556 | 3 | 340 | 17.7 | 35.4 | 0.00 | 1.47 | 0.15 | 85 | 1002.4 |
| 20260507193101 | 3 | 254 | 16.1 | 43.5 | 0.00 | 1.47 | 0.15 | 90 | 1002.4 |
| 20260507191557 | 2 | 276 | 14.5 | 38.6 | 0.00 | 1.47 | 0.15 | 98 | 1002.4 |
| 20260507190054 | 2 | 255 | 17.7 | 35.4 | 0.00 | 1.47 | 0.15 | 100 | 1002.5 |
| 20260507184555 | 2 | 286 | 16.1 | 35.4 | 0.00 | 1.75 | 0.15 | 100 | 1002.3 |
| 20260507183106 | 3 | 254 | 17.7 | 32.2 | 0.00 | 1.75 | 0.15 | 100 | 1002.4 |
| 20260507181558 | 2 | 241 | 8.0 | 24.1 | 0.03 | 1.75 | 0.15 | 100 | 1002.5 |
| 20260507180056 | 2 | 210 | 16.1 | 25.7 | 0.05 | 1.75 | 0.15 | 100 | 1002.8 |
| 20260507174606 | 2 | 230 | 14.5 | 32.2 | 0.10 | 1.98 | 0.15 | 100 | 1002.8 |
| 20260507173101 | 2 | 279 | 11.3 | 24.1 | 0.10 | 1.98 | 0.15 | 100 | 1002.8 |
| 20260507171611 | 2 | 282 | 14.5 | 37.0 | 0.10 | 1.96 | 0.13 | 100 | 1002.9 |
| 20260507170058 | 2 | 252 | 14.5 | 25.7 | 0.10 | 1.93 | 0.10 | 100 | 1003.1 |
| 20260507164610 | 0 | 269 | 4.8 | 25.7 | 0.05 | 1.93 | 0.05 | 100 | 1003.4 |
| 20260507163059 | 1 | 210 | 9.7 | 24.1 | 0.05 | 1.93 | 0.05 | 100 | 1003.4 |
| 20260507161613 | 1 | 269 | 8.0 | 24.1 | 0.03 | 1.91 | 0.03 | 100 | 1003.4 |
| 20260507160058 | 1 | 242 | 9.7 | 19.3 | 0.00 | 1.88 | 0.00 | 100 | 1003.5 |
| 20260507154558 | 2 | 225 | 11.3 | 20.9 | 0.00 | 1.88 | 0.00 | 100 | 1003.6 |
| 20260507153058 | 2 | 275 | 6.4 | 19.3 | 0.00 | 1.88 | 0.00 | 100 | 1003.7 |
| 20260507151603 | 2 | 306 | 11.3 | 27.4 | 0.00 | 1.88 | 0.00 | 100 | 1003.6 |
| 20260507150106 | 1 | 234 | 9.7 | 22.5 | 0.00 | 1.88 | 0.00 | 100 | 1003.8 |
| 20260507144559 | 1 | 320 | 6.4 | 17.7 | 0.00 | 1.93 | 0.00 | 100 | 1003.7 |
| 20260507143105 | 1 | 266 | 6.4 | 17.7 | 0.00 | 1.93 | 0.00 | 100 | 1003.8 |
| 20260507141558 | 1 | 275 | 8.0 | 17.7 | 0.00 | 1.93 | 0.00 | 100 | 1003.9 |
| 20260507140100 | 1 | 275 | 6.4 | 20.9 | 0.00 | 1.93 | 0.00 | 100 | 1003.8 |
| 20260507134559 | 1 | 246 | 6.4 | 25.7 | 0.00 | 1.93 | 0.00 | 100 | 1003.8 |
| 20260507133101 | 1 | 169 | 16.1 | 32.2 | 0.00 | 1.93 | 0.00 | 100 | 1003.8 |
| 20260507131622 | 0 | 260 | 11.3 | 24.1 | 0.00 | 1.93 | 0.00 | 100 | 1003.9 |
| 20260507130104 | 0 | 295 | 8.0 | 24.1 | 0.00 | 1.93 | 0.00 | 100 | 1003.7 |
| 20260507124558 | 0 | 259 | 8.0 | 22.5 | 0.00 | 1.93 | 0.00 | 100 | 1003.7 |
| 20260507123107 | 0 | 268 | 6.4 | 16.1 | 0.00 | 1.93 | 0.00 | 100 | 1003.5 |
| 20260507121607 | 0 | 100 | 4.8 | 12.9 | 0.00 | 1.93 | 0.00 | 100 | 1003.4 |
| 20260507120104 | 0 | 348 | 6.4 | 22.5 | 0.00 | 1.93 | 0.00 | 100 | 1003.5 |
| 20260507114602 | 0 | 308 | 11.3 | 24.1 | 0.00 | 1.93 | 0.00 | 100 | 1003.5 |
| 20260507113103 | 0 | 276 | 6.4 | 24.1 | 0.00 | 1.93 | 0.00 | 100 | 1003.6 |
| 20260507111554 | 0 | 267 | 12.9 | 22.5 | 0.00 | 1.93 | 0.00 | 100 | 1003.7 |
| 20260507110110 | 0 | 140 | 4.8 | 20.9 | 0.00 | 1.93 | 0.00 | 100 | 1003.6 |
| 20260507104556 | 0 | 265 | 11.3 | 27.4 | 0.00 | 1.93 | 0.00 | 100 | 1003.7 |
| 20260507103058 | 0 | 313 | 12.9 | 29.0 | 0.00 | 1.93 | 0.00 | 100 | 1003.3 |
| 20260507101558 | 0 | 269 | 9.7 | 20.9 | 0.00 | 1.93 | 0.00 | 99 | 1003.1 |
| 20260507100054 | 0 | 91 | 8.0 | 25.7 | 0.00 | 1.93 | 0.00 | 100 | 1002.9 |
| 20260507094608 | 0 | 311 | 11.3 | 25.7 | 0.00 | 1.93 | 0.00 | 99 | 1003.1 |
| 20260507093100 | 0 | 93 | 8.0 | 22.5 | 0.00 | 1.93 | 0.00 | 99 | 1002.8 |
| 20260507091640 | 0 | 137 | 6.4 | 22.5 | 0.00 | 1.93 | 0.00 | 99 | 1002.9 |
| 20260507090105 | 0 | 134 | 8.0 | 20.9 | 0.00 | 1.93 | 0.00 | 99 | 1002.9 |
| 20260507084559 | 0 | 87 | 9.7 | 27.4 | 0.00 | 1.93 | 0.00 | 99 | 1002.7 |
| 20260507083057 | 0 | 149 | 9.7 | 24.1 | 0.00 | 1.93 | 0.00 | 99 | 1003.1 |
| 20260507081555 | 0 | 319 | 9.7 | 30.6 | 0.00 | 1.93 | 0.00 | 100 | 1003.1 |
| 20260507080059 | 0 | 5 | 6.4 | 22.5 | 0.00 | 1.93 | 0.00 | 100 | 1002.8 |
| 20260507074555 | 0 | 130 | 8.0 | 17.7 | 0.00 | 2.01 | 0.00 | 100 | 1002.7 |
| 20260507073053 | 0 | 128 | 9.7 | 19.3 | 0.00 | 2.01 | 0.00 | 100 | 1002.4 |
| 20260507071557 | 0 | 122 | 6.4 | 17.7 | 0.00 | 2.01 | 0.00 | 99 | 1002.8 |
| 20260507070107 | 0 | 98 | 9.7 | 19.3 | 0.00 | 2.01 | 0.00 | 100 | 1002.2 |
| 20260507064600 | 0 | 65 | 8.0 | 22.5 | 0.00 | 2.03 | 0.00 | 100 | 1002.5 |
| 20260507063058 | 0 | 84 | 9.7 | 19.3 | 0.00 | 2.03 | 0.00 | 100 | 1001.8 |
| 20260507061559 | 0 | 109 | 9.7 | 24.1 | 0.00 | 2.03 | 0.00 | 100 | 1002.4 |
| 20260507060105 | 0 | 317 | 9.7 | 25.7 | 0.00 | 2.03 | 0.00 | 100 | 1002.7 |
| 20260507054559 | 0 | 142 | 11.3 | 22.5 | 0.00 | 2.11 | 0.00 | 100 | 1002.5 |
| 20260507053055 | 0 | 164 | 9.7 | 25.7 | 0.00 | 2.11 | 0.00 | 100 | 1002.6 |
| 20260507051557 | 1 | 17 | 8.0 | 16.1 | 0.00 | 2.11 | 0.00 | 100 | 1002.8 |
| 20260507050057 | 1 | 321 | 6.4 | 17.7 | 0.00 | 2.11 | 0.00 | 100 | 1002.7 |
| 20260507044601 | 1 | 252 | 8.0 | 17.7 | 0.00 | 2.11 | 0.00 | 100 | 1002.8 |
| 20260507043059 | 1 | 132 | 4.8 | 11.3 | 0.05 | 2.11 | 0.00 | 100 | 1003.1 |
| 20260507041555 | 1 | 79 | 6.4 | 19.3 | 0.10 | 2.11 | 0.00 | 100 | 1003.5 |
| 20260507040103 | 1 | 112 | 12.9 | 29.0 | 0.10 | 2.11 | 0.00 | 100 | 1003.9 |
| 20260507034559 | 2 | 67 | 9.7 | 24.1 | 0.18 | 2.11 | 2.11 | 100 | 1003.8 |
| 20260507033055 | 2 | 114 | 9.7 | 29.0 | 0.18 | 2.06 | 2.06 | 100 | 1004.2 |
| 20260507031553 | 2 | 82 | 9.7 | 24.1 | 0.18 | 2.01 | 2.01 | 99 | 1004.2 |
| 20260507030055 | 2 | 228 | 8.0 | 22.5 | 0.28 | 2.01 | 2.01 | 99 | 1004.1 |
| 20260507024600 | 2 | 288 | 14.5 | 29.0 | 0.30 | 1.93 | 1.93 | 100 | 1004.2 |
| 20260507023055 | 3 | 296 | 6.4 | 14.5 | 0.30 | 1.88 | 1.88 | 99 | 1003.9 |
| 20260507021558 | 3 | 125 | 1.6 | 8.0 | 0.25 | 1.83 | 1.83 | 100 | 1004.1 |
| 20260507020056 | 5 | 263 | 6.4 | 14.5 | 0.15 | 1.73 | 1.73 | 100 | 1004.2 |
| 20260507014556 | 5 | 275 | 1.6 | 9.7 | 0.05 | 1.63 | 1.63 | 100 | 1003.9 |
| 20260507013056 | 5 | 256 | 1.6 | 11.3 | 0.03 | 1.57 | 1.57 | 100 | 1004.0 |
| 20260507011556 | 6 | 281 | 8.0 | 16.1 | 0.05 | 1.57 | 1.57 | 100 | 1004.2 |
| 20260507010111 | 6 | 353 | 0.0 | 19.3 | 0.08 | 1.57 | 1.57 | 100 | 1004.2 |